DW7571 Weather Reports


time (UTC)temp
C
wind
direction
speed
KPH
gust
KPH
rain 1hr
cm
rain 24hr
cm
rain mn
cm
humidity
%
barometer
mb
20260508233402 17 245 6.4 9.7 0.00 0.00 0.00 36 1006.4
20260508231901 18 265 14.5 14.5 0.00 0.00 0.00 36 1006.4
20260508225401 18 245 12.9 20.9 0.00 0.00 0.00 35 1006.4
20260508223902 18 292 8.0 11.3 0.00 0.00 0.00 37 1006.4
20260508215402 19 247 8.0 16.1 0.00 0.00 0.00 33 1006.8
20260508213902 19 351 12.9 16.1 0.00 0.00 0.00 34 1006.8
20260508205401 20 228 6.4 19.3 0.00 0.00 0.00 33 1007.1
20260508203902 20 251 19.3 19.3 0.00 0.00 0.00 32 1007.1
20260508202402 19 275 11.3 17.7 0.00 0.00 0.00 33 1007.5
20260508195402 18 254 17.7 17.7 0.00 0.00 0.00 33 1007.8
20260508193902 17 247 3.2 12.9 0.00 0.00 0.00 37 1008.1
20260508192401 17 197 4.8 16.1 0.00 0.00 0.00 39 1008.1
20260508185402 17 235 6.4 16.1 0.00 0.00 0.00 34 1008.8
20260508183901 18 269 6.4 12.9 0.00 0.00 0.00 36 1009.1
20260508180902 18 248 8.0 11.3 0.00 0.00 0.00 37 1009.5
20260508175901 17 277 14.5 14.5 0.00 0.00 0.00 36 1009.5
20260508172901 17 229 4.8 16.1 0.00 0.00 0.00 35 1009.8
20260508165902 17 300 6.4 11.3 0.00 0.00 0.00 35 1010.5
20260508164401 17 283 6.4 9.7 0.00 0.00 0.00 38 1010.8
20260508162902 17 156 4.8 9.7 0.00 0.00 0.00 39 1010.8
20260508161402 16 254 6.4 9.7 0.00 0.00 0.00 38 1010.8
20260508155901 15 226 6.4 12.9 0.00 0.00 0.00 38 1010.8
20260508154402 15 328 6.4 9.7 0.00 0.00 0.00 44 1011.2
20260508152901 15 166 6.4 8.0 0.00 0.00 0.00 47 1011.2
20260508145902 13 198 1.6 9.7 0.00 0.00 0.00 51 1011.5
20260508144901 12 258 4.8 6.4 0.00 0.00 0.00 52 1011.5
20260508143402 12 229 3.2 8.0 0.00 0.00 0.00 60 1011.5
20260508141902 11 243 4.8 4.8 0.00 0.00 0.00 59 1011.5
20260508140401 11 190 1.6 3.2 0.00 0.00 0.00 68 1011.9
20260508134902 11 288 3.2 4.8 0.00 0.00 0.00 71 1011.9
20260508133402 10 152 3.2 8.0 0.00 0.00 0.00 76 1011.9
20260508132401 10 260 3.2 4.8 0.00 0.00 0.00 78 1011.9
20260508130902 8 14 3.2 4.8 0.00 0.00 0.00 82 1011.9
20260508125401 8 206 3.2 11.3 0.00 0.00 0.00 84 1011.9
20260508123902 7 237 3.2 8.0 0.00 0.00 0.00 88 1011.9
20260508115402 5 199 3.2 4.8 0.00 0.00 0.00 94 1011.2
20260508113902 5 217 1.6 3.2 0.00 0.00 0.00 94 1011.2
20260508112401 3 202 0.0 0.0 0.00 0.00 0.00 94 1011.2
20260508105402 2 184 0.0 0.0 0.00 0.00 0.00 93 1010.8
20260508103901 3 186 0.0 0.0 0.00 0.00 0.00 93 1010.8
20260508094902 3 202 0.0 1.6 0.00 0.00 0.00 92 1010.8
20260508093401 3 200 1.6 1.6 0.00 0.00 0.00 91 1010.8
20260508091902 3 186 0.0 0.0 0.00 0.00 0.00 90 1010.8
20260508090402 3 185 0.0 0.0 0.00 0.00 0.00 90 1010.8
20260508084901 4 201 0.0 0.0 0.00 0.00 0.00 89 1010.8
20260508081902 5 208 0.0 3.2 0.00 0.00 0.00 88 1011.2
20260508080901 5 210 0.0 0.0 0.00 0.00 0.00 87 1011.2
20260508075402 5 199 0.0 1.6 0.00 0.00 0.00 87 1011.2
20260508073901 6 219 1.6 4.8 0.00 0.00 0.00 87 1011.2
20260508072402 5 245 1.6 4.8 0.00 0.00 0.00 88 1011.5
20260508070902 5 252 3.2 4.8 0.00 0.00 0.00 88 1011.5
20260508065401 5 256 0.0 6.4 0.00 0.00 0.00 89 1011.5
20260508063902 4 242 1.6 3.2 0.00 0.00 0.00 86 1011.5
20260508062402 5 204 0.0 0.0 0.00 0.00 0.00 85 1011.9
20260508061401 5 204 0.0 0.0 0.00 0.00 0.00 84 1011.5
20260508055902 5 207 0.0 1.6 0.00 0.00 0.00 83 1011.5
20260508053401 6 220 0.0 0.0 0.00 0.00 0.00 82 1011.5
20260508051902 6 206 0.0 1.6 0.00 0.00 0.00 83 1011.5
20260508050401 6 208 0.0 0.0 0.00 0.00 0.00 84 1011.5
20260508044902 6 207 0.0 0.0 0.00 0.00 0.00 82 1011.5
20260508043401 6 199 0.0 0.0 0.00 0.00 0.00 81 1011.5
20260508034901 7 225 3.2 3.2 0.00 0.00 0.00 79 1011.5
20260508031902 7 222 3.2 4.8 0.00 0.00 0.00 77 1011.5
20260508030902 7 206 4.8 4.8 0.00 0.00 0.00 75 1011.5
20260508025402 7 205 3.2 6.4 0.00 0.00 0.00 73 1011.9
20260508023901 7 209 4.8 6.4 0.00 0.00 0.00 72 1011.5
20260508022401 8 201 3.2 4.8 0.00 0.00 0.00 70 1011.5
20260508020902 8 205 1.6 3.2 0.00 0.00 0.00 68 1011.5
20260508015401 8 216 3.2 4.8 0.00 0.00 0.00 67 1011.5
20260508012402 9 161 3.2 6.4 0.00 0.00 0.00 63 1011.5
20260508011401 10 267 4.8 12.9 0.00 0.00 0.00 61 1011.5
20260508005902 10 246 4.8 9.7 0.00 0.00 0.00 59 1011.5
20260508004402 10 287 9.7 14.5 0.00 0.00 0.00 53 1011.2
20260508002901 11 309 4.8 6.4 0.00 0.00 0.00 52 1011.2
20260508001402 11 302 8.0 11.3 0.00 0.00 0.00 47 1011.2